When you browse on this site, cookies collect data to enhance your experience and personalize the content and advertising you see.
Visit our Privacy Policy to learn more. By continuing to use the site, you agree to this use of cookies and data.
  • en France
  • Liste des pays
  • À 7 jours
  • Température de l'eau
  • Carte météo
  • Widgets météo
  • user-avatar
    Se connecter

    Météo par heure à Campo Grande

    Ce jour, 20 Août, Mardi

    Heure Température Précipitation Vent Pression Humidité
    00:00 +23°C° 0 mm 2 m/s 712 mmHg 69%
    01:00 +23°C° 0 mm 2 m/s 712 mmHg 70%
    02:00 +23°C° 0 mm 2 m/s 712 mmHg 72%
    03:00 +21°C° 0 mm 2 m/s 712 mmHg 75%
    04:00 +20°C° 0 mm 2 m/s 712 mmHg 78%
    05:00 +20°C° 0 mm 1 m/s 712 mmHg 81%
    06:00 +21°C° 0 mm 2 m/s 712 mmHg 75%
    07:00 +23°C° 0 mm 2 m/s 713 mmHg 68%
    08:00 +24°C° 0 mm 2 m/s 714 mmHg 61%
    09:00 +26°C° 0 mm 2 m/s 714 mmHg 54%
    10:00 +29°C° 0 mm 2 m/s 714 mmHg 47%
    11:00 +31°C° 0 mm 2 m/s 714 mmHg 40%
    12:00 +31°C° 0 mm 2 m/s 714 mmHg 39%
    13:00 +31°C° 0 mm 3 m/s 713 mmHg 37%
    14:00 +31°C° 0 mm 3 m/s 713 mmHg 36%
    15:00 +31°C° 0 mm 3 m/s 713 mmHg 37%
    16:00 +30°C° 0 mm 3 m/s 713 mmHg 38%
    17:00 +29°C° 0 mm 2 m/s 713 mmHg 39%
    18:00 +28°C° 0 mm 2 m/s 713 mmHg 44%
    19:00 +26°C° 0 mm 2 m/s 713 mmHg 49%
    20:00 +24°C° 0 mm 1 m/s 714 mmHg 54%
    21:00 +24°C° 0 mm 1 m/s 714 mmHg 56%
    22:00 +23°C° 0 mm 1 m/s 714 mmHg 57%
    23:00 +23°C° 0 mm 1 m/s 714 mmHg 59%

    Demain, 21 Août, Mercredi

    Heure Température Précipitation Vent Pression Humidité
    00:00 +21°C° 0 mm 2 m/s 713 mmHg 61%
    01:00 +21°C° 0 mm 2 m/s 713 mmHg 63%
    02:00 +21°C° 0 mm 2 m/s 713 mmHg 65%
    03:00 +20°C° 0 mm 2 m/s 713 mmHg 67%
    04:00 +20°C° 0 mm 2 m/s 713 mmHg 70%
    05:00 +19°C° 0 mm 2 m/s 713 mmHg 72%
    06:00 +21°C° 0 mm 3 m/s 713 mmHg 66%
    07:00 +24°C° 0 mm 3 m/s 714 mmHg 60%
    08:00 +26°C° 0 mm 3 m/s 715 mmHg 54%
    09:00 +28°C° 0 mm 3 m/s 715 mmHg 47%
    10:00 +30°C° 0 mm 2 m/s 715 mmHg 40%
    11:00 +32°C° 0 mm 2 m/s 715 mmHg 32%
    12:00 +34°C° 0 mm 2 m/s 714 mmHg 30%
    13:00 +35°C° 0 mm 2 m/s 714 mmHg 27%
    14:00 +35°C° 0 mm 2 m/s 713 mmHg 25%
    15:00 +34°C° 0 mm 2 m/s 713 mmHg 27%
    16:00 +32°C° 0 mm 2 m/s 713 mmHg 29%
    17:00 +31°C° 0 mm 2 m/s 712 mmHg 31%
    18:00 +30°C° 0 mm 3 m/s 713 mmHg 34%
    19:00 +29°C° 0 mm 3 m/s 713 mmHg 36%
    20:00 +27°C° 0 mm 3 m/s 713 mmHg 39%
    21:00 +26°C° 0 mm 4 m/s 713 mmHg 42%
    22:00 +25°C° 0 mm 4 m/s 713 mmHg 46%
    23:00 +23°C° 0 mm 4 m/s 713 mmHg 50%

    Après-demain, 22 Août, Jeudi

    Heure Température Précipitation Vent Pression Humidité
    00:00 +23°C° 0 mm 4 m/s 713 mmHg 53%
    01:00 +22°C° 0 mm 5 m/s 713 mmHg 56%
    02:00 +22°C° 0 mm 5 m/s 713 mmHg 58%
    03:00 +21°C° 0 mm 5 m/s 713 mmHg 59%
    04:00 +21°C° 0 mm 5 m/s 713 mmHg 60%
    05:00 +21°C° 0 mm 5 m/s 713 mmHg 60%
    06:00 +22°C° 0 mm 5 m/s 713 mmHg 56%
    07:00 +23°C° 0 mm 6 m/s 714 mmHg 51%
    08:00 +26°C° 0 mm 6 m/s 715 mmHg 47%
    09:00 +28°C° 0 mm 6 m/s 715 mmHg 41%
    10:00 +30°C° 0 mm 5 m/s 715 mmHg 35%
    11:00 +34°C° 0 mm 4 m/s 715 mmHg 29%
    12:00 +35°C° 0 mm 3 m/s 714 mmHg 26%
    13:00 +36°C° 0 mm 2 m/s 714 mmHg 24%
    14:00 +36°C° 0 mm 1 m/s 713 mmHg 21%
    15:00 +35°C° 0 mm 2 m/s 713 mmHg 22%
    16:00 +34°C° 0 mm 2 m/s 712 mmHg 24%
    17:00 +32°C° 0 mm 2 m/s 712 mmHg 25%
    18:00 +31°C° 0 mm 3 m/s 713 mmHg 28%
    19:00 +29°C° 0 mm 4 m/s 713 mmHg 31%
    20:00 +28°C° 0 mm 5 m/s 713 mmHg 34%
    21:00 +27°C° 0 mm 5 m/s 714 mmHg 37%
    22:00 +27°C° 0 mm 5 m/s 714 mmHg 39%
    23:00 +26°C° 0 mm 5 m/s 714 mmHg 42%

    23 Août, Vendredi

    Heure Température Précipitation Vent Pression Humidité
    00:00 +25°C° 0 mm 5 m/s 714 mmHg 44%
    01:00 +23°C° 0 mm 5 m/s 713 mmHg 46%
    02:00 +23°C° 0 mm 5 m/s 713 mmHg 49%
    03:00 +22°C° 0 mm 4 m/s 713 mmHg 51%
    04:00 +21°C° 0 mm 4 m/s 713 mmHg 54%
    05:00 +21°C° 0 mm 4 m/s 713 mmHg 56%
    06:00 +22°C° 0 mm 4 m/s 713 mmHg 52%
    07:00 +23°C° 0 mm 5 m/s 714 mmHg 49%
    08:00 +25°C° 0 mm 5 m/s 715 mmHg 45%
    09:00 +28°C° 0 mm 5 m/s 714 mmHg 39%
    10:00 +30°C° 0 mm 4 m/s 714 mmHg 32%
    11:00 +34°C° 0 mm 4 m/s 714 mmHg 26%
    12:00 +35°C° 0 mm 3 m/s 714 mmHg 24%
    13:00 +35°C° 0 mm 2 m/s 713 mmHg 23%
    14:00 +36°C° 0 mm 2 m/s 712 mmHg 21%
    15:00 +34°C° 0 mm 2 m/s 712 mmHg 23%
    16:00 +33°C° 0 mm 3 m/s 712 mmHg 25%
    17:00 +31°C° 0 mm 3 m/s 712 mmHg 28%
    18:00 +30°C° 0 mm 3 m/s 712 mmHg 31%
    19:00 +28°C° 0 mm 4 m/s 712 mmHg 34%
    20:00 +27°C° 0 mm 5 m/s 713 mmHg 38%
    21:00 +26°C° 0 mm 5 m/s 713 mmHg 40%
    22:00 +25°C° 0 mm 5 m/s 713 mmHg 43%
    23:00 +23°C° 0 mm 6 m/s 713 mmHg 46%

    24 Août, Samedi

    Heure Température Précipitation Vent Pression Humidité
    00:00 +23°C° 0 mm 6 m/s 712 mmHg 47%
    01:00 +22°C° 0 mm 6 m/s 712 mmHg 49%
    02:00 +22°C° 0 mm 6 m/s 712 mmHg 51%
    03:00 +21°C° 0 mm 6 m/s 712 mmHg 52%
    04:00 +21°C° 0 mm 6 m/s 712 mmHg 53%
    05:00 +21°C° 0 mm 7 m/s 712 mmHg 54%
    06:00 +21°C° 0 mm 7 m/s 713 mmHg 51%
    07:00 +22°C° 0 mm 7 m/s 713 mmHg 49%
    08:00 +23°C° 0 mm 8 m/s 714 mmHg 46%
    09:00 +27°C° 0 mm 7 m/s 714 mmHg 41%
    10:00 +29°C° 0 mm 7 m/s 714 mmHg 36%
    11:00 +32°C° 0 mm 6 m/s 714 mmHg 31%
    12:00 +33°C° 0 mm 5 m/s 713 mmHg 28%
    13:00 +34°C° 0 mm 4 m/s 713 mmHg 26%
    14:00 +36°C° 0 mm 3 m/s 712 mmHg 23%
    15:00 +35°C° 0 mm 3 m/s 712 mmHg 24%
    16:00 +34°C° 0 mm 4 m/s 711 mmHg 26%
    17:00 +33°C° 0 mm 4 m/s 711 mmHg 27%
    18:00 +30°C° 0 mm 5 m/s 711 mmHg 30%
    19:00 +28°C° 0 mm 6 m/s 712 mmHg 34%
    20:00 +27°C° 0 mm 6 m/s 712 mmHg 37%
    21:00 +26°C° 0 mm 6 m/s 712 mmHg 38%
    22:00 +24°C° 0 mm 7 m/s 712 mmHg 40%
    23:00 +24°C° 0 mm 7 m/s 712 mmHg 41%

    25 Août, Dimanche

    Heure Température Précipitation Vent Pression Humidité
    00:00 +23°C° 0 mm 7 m/s 712 mmHg 41%
    01:00 +23°C° 0 mm 7 m/s 711 mmHg 42%
    02:00 +22°C° 0 mm 7 m/s 711 mmHg 42%
    03:00 +22°C° 0 mm 7 m/s 711 mmHg 41%
    04:00 +21°C° 0 mm 7 m/s 711 mmHg 41%
    05:00 +21°C° 0 mm 7 m/s 712 mmHg 40%
    06:00 +22°C° 0 mm 7 m/s 712 mmHg 39%
    07:00 +23°C° 0 mm 7 m/s 713 mmHg 38%
    08:00 +24°C° 0 mm 7 m/s 714 mmHg 37%
    09:00 +28°C° 0 mm 7 m/s 714 mmHg 32%
    10:00 +30°C° 0 mm 7 m/s 714 mmHg 28%
    11:00 +34°C° 0 mm 6 m/s 714 mmHg 23%
    12:00 +35°C° 0 mm 5 m/s 713 mmHg 22%
    13:00 +36°C° 0 mm 4 m/s 712 mmHg 20%
    14:00 +37°C° 0 mm 3 m/s 712 mmHg 18%
    15:00 +36°C° 0 mm 3 m/s 712 mmHg 20%
    16:00 +35°C° 0 mm 3 m/s 711 mmHg 21%
    17:00 +34°C° 0 mm 2 m/s 711 mmHg 23%
    18:00 +31°C° 0 mm 3 m/s 711 mmHg 25%
    19:00 +29°C° 0 mm 4 m/s 711 mmHg 28%
    20:00 +28°C° 0 mm 4 m/s 712 mmHg 31%
    21:00 +27°C° 0 mm 5 m/s 712 mmHg 32%
    22:00 +26°C° 0 mm 5 m/s 712 mmHg 34%
    23:00 +26°C° 0 mm 5 m/s 712 mmHg 36%
    Voir plus